SCP
0 0 0 0 0 0 0 0 0 0 0 0 0 0 0 0 0 0 0 0 0 0 0 0 0 0 0 0 0 0 0 0 0 0 0 0 0 0 0 0 0 0 0 0 0 0 0 0 0 0 0 0 0 0
0 0 0 0 0 0 0 0 0 0 0 0 0 0 0 0 -0 0 0 0 0 0 0 0 0 0 0 0 0 0 0 0 0 0 0 0 0 0 0 0 0 0 0 0 0 0 0 0 0 0 0 0 -0 0
-0 -0 -0 -0 -0 -0 -0 -0 -0 -0 -0 -0 -0 -0 -0 -0 -0 0 0 0 0 0 0 0 0 0 0 0 0 0 0 0 0 0 0 0 0 0 0 0 0 0 0 0 0 0 -0 -0 -0 -0 -0 -0 -0 -0
-0 -0 -0 -0 -0 -0 -0 -0 -0 -0 -0 -0 -0 -0 -0 -0 -0 0 0 0 0 0 0 0 0 0 0 0 0 0 0 0 0 0 0 0 0 0 0 0 0 0 0 0 -0 -0 -0 0 0 0 0 0 0 0
-0 -0 -0 -0 -0 -0 -0 -0 -0 -0 -0 -0 -0 0 0 0 0 0 0 0 0 0 0 0 0 0 0 0 0 0 0 0 0 0 0 0 0 0 0 0 0 0 0 0 -0 -0 -0 -0 0 0 0 0 0 0
-0 -0 -0 -0 -0 -0 -0 -0 -0 -0 0 0 0 0 0 0 0 0 0 0 0 0 0 0 0 0 0 0 0 0 0 0 0 0 0 0 0 0 0 0 -0 -0 -0 -0 -0 0 0 0 0 0 -0 -0 -0 -0
-0 -0 -0 -0 -0 -0 -0 -0 -0 -0 0 0 0 0 0 0 0 0 0 0 0 0 0 0 0 -0 -0 0 0 0 0 0 0 0 0 0 0 0 0 0 -0 -0 -0 -0 0 0 0 0 0 -0 -0 -0 -0 0
-0 -0 -0 -0 -0 -0 -0 -0 -0 -0 -0 -0 -0 -0 0 0 0 0 0 0 0 0 0 0 0 0 0 0 0 0 0 -0 0 0 0 0 -0 -0 0 0 -0 -0 -0 -0 0 0 0 0 0 -0 -0 -0 0 -0
-0 -0 -0 -0 -0 -0 -0 -0 -0 -0 0 0 0 0 0 0 0 0 0 0 0 0 0 0 0 0 0 0 0 -0 -0 0 -0 0 0 -0 -0 0 0 -0 -0 -0 -0 0 0 0 0 0 -0 -0 -0 -0 -0 -0
-0 -0 -0 -0 -0 -0 0 0 0 0 0 0 0 0 0 0 0 0 0 0 0 0 0 0 0 0 0 0 0 -0 -0 -0 -0 0 -0 -0 0 0 0 0 0 0 0 0 -0 -0 -0 -0 -0 -0 -0 -0 -0 -0
-0 -0 -0 -0 -0 -0 -0 -0 -0 -0 -0 0 0 0 0 0 0 0 0 0 0 0 0 0 0 0 0 0 -0 -0 0 -0 0 -0 0 0 0 0 0 0 0 0 0 0 0 0 0 0 0 -0 -0 -0 -0 -0
-0 -0 -0 -0 -0 -0 -0 0 0 0 0 0 0 0 0 0 0 0 0 0 0 0 0 0 0 -0 0 -0 -0 -0 0 0 0 0 0 0 0 0 0 0 0 0 0 0 0 0 0 0 0 0 0 -0 -0 -0
-0 -0 -0 -0 -0 -0 -0 -0 -0 -0 0 0 0 0 0 0 0 0 0 0 0 0 0 0 0 0 0 -0 0 0 0 -0 0 0 0 0 -0 -0 0 0 0 0 0 0 0 0 -0 0 0 0 -0 -0 0 0
0 0 -0 0 -0 -0 -0 0 0 0 0 0 0 0 0 0 0 0 0 0 0 0 0 0 0 0 0 0 0 0 0 0 0 0 0 0 -0 -0 0 0 0 0 0 0 0 0 -0 -0 -0 0 0 0 0 -0
0 0 0 -0 -0 -0 0 0 0 0 0 0 0 0 0 0 -0 -0 0 0 0 0 0 0 0 0 0 0 0 0 0 0 0 0 0 0 -0 0 0 0 0 0 0 0 0 0 0 0 -0 -0 0 0 0 0
0 0 -0 -0 0 0 0 0 0 0 0 0 0 0 0 0 -0 0 0 0 0 0 0 0 0 0 0 0 0 0 0 0 0 0 0 0 0 0 0 0 0 0 0 0 0 0 0 0 0 -0 0 -0 -0 -0
0 -0 -0 -0 -0 -0 0 0 -0 -0 0 0 -0 -0 0 0 -0 0 0 0 0 0 0 0 0 -0 0 0 0 0 0 0 0 0 0 0 0 0 0 0 0 0 0 0 0 0 0 0 0 0 0 -0 -0 -0
-0 -0 -0 -0 -0 0 0 -0 -0 0 -0 -0 -0 -0 -0 -0 -0 0 0 0 0 0 0 0 0 0 0 0 0 0 0 0 0 0 0 0 0 0 0 0 0 0 0 0 0 0 0 0 0 0 0 -0 -0 -0
-0 -0 -0 -0 -0 0 0 0 0 0 -0 -0 -0 0 -0 -0 -0 -0 0 0 0 0 0 0 0 0 0 0 0 0 0 0 0 0 0 0 0 0 0 0 0 0 0 0 0 0 0 0 0 0 0 0 0 -0
0 -0 -0 -0 -0 -0 0 0 0 0 0 0 0 0 0 -0 -0 0 0 0 0 0 0 0 0 0 0 0 0 0 0 0 0 0 0 0 0 0 0 0 0 0 0 0 0 0 0 0 0 0 0 0 0 0
0 0 0 0 0 0 0 0 0 -0 -0 0 0 0 0 0 0 0 0 0 0 0 0 0 0 0 0 0 0 0 0 0 0 0 0 0 0 0 0 0 0 0 0 0 0 0 0 0 0 0 0 0 0 0
0 0 0 0 0 0 0 0 0 0 0 0 0 0 0 0 0 0 0 0 0 0 0 0 0 0 0 0 0 0 0 0 0 0 0 0 0 0 0 0 0 0 0 0 0 0 0 0 0 0 0 0 0 0
0 0 0 0 0 0 0 0 0 0 0 0 0 0 0 0 0 0 0 0 0 0 0 0 0 0 0 0 0 0 0 0 0 0 0 0 0 0 0 0 0 0 0 0 0 0 0 0 0 0 0 0 0 0
0 0 0 0 0 0 0 0 0 0 0 0 0 0 0 0 0 0 0 0 0 0 0 0 0 0 0 0 0 0 0 0 0 0 0 0 0 0 0 0 0 0 0 0 0 0 0 0 0 0 0 0 0 0
0 0 0 0 0 0 0 0 0 0 0 0 0 0 0 0 0 0 0 0 0 0 0 0 0 0 0 0 0 0 0 0 0 0 0 0 0 0 0 0 0 0 0 0 0 0 0 0 0 0 0 0 -0 0
0 0 0 0 0 0 0 0 0 0 0 0 0 0 0 0 0 0 0 0 0 0 0 0 0 0 0 0 0 0 0 0 0 0 0 0 0 0 0 0 0 0 0 0 0 0 0 0 0 0 0 0 -0 -0
0 0 0 0 0 0 0 0 0 0 0 0 0 0 0 0 0 0 0 0 0 0 0 0 0 0 0 0 0 0 0 0 0 0 0 0 0 0 0 0 0 0 0 0 0 0 0 0 0 0 0 0 -0 -0
0 0 0 0 0 0 0 0 0 0 0 0 0 0 0 0 0 0 0 0 0 0 0 0 0 0 0 0 0 0 0 0 0 0 0 0 0 0 0 0 0 0 0 0 0 0 0 0 0 0 0 0 0 0
0 0 0 0 0 0 0 0 0 0 0 0 0 0 0 0 0 0 0 0 0 0 0 0 0 0 0 0 0 0 0 0 0 0 0 0 0 0 0 0 0 0 0 0 0 0 0 0 0 0 0 0 0 0
0 0 0 0 0 0 0 0 0 0 0 0 0 0 0 0 0 0 0 0 0 0 0 0 0 0 0 0 0 0 0 0 0 0 0 0 0 0 0 0 0 0 0 0 0 0 0 0 0 0 0 0 0 0
0 0 0 0 0 0 0 0 0 0 0 0 0 0 0 0 0 0 0 0 0 0 0 0 0 0 0 0 0 0 0 0 0 0 0 0 0 0 0 0 0 0 0 0 0 0 0 0 0 -0 -0 -0 0 0
0 0 0 0 0 0 0 0 0 0 0 0 0 0 0 0 0 0 0 0 0 0 0 0 0 0 0 0 0 0 0 0 0 0 0 0 0 0 0 0 0 0 0 0 0 0 0 0 0 -0 -0 -0 -0 -0
0 0 0 0 0 0 0 0 0 0 0 0 0 0 0 0 0 0 0 0 0 0 0 0 0 0 0 0 0 0 0 0 0 0 0 0 0 0 0 0 0 0 0 0 0 -0 -0 0 0 0 0 -0 -0 -0
Wind_Speed_500mb
103 97 96 92 88 85 85 81 82 71 62 55 47 38 30 27 26 26 35 36 34 21 24 26 26 27 22 17 8 14 9 4 6 6 6 5 5 9 5 6 8 8 5 7 3 3 13 12 9 7 11 58 53 60
84 83 82 80 79 76 74 70 66 60 51 45 39 36 34 33 30 37 41 37 52 24 28 33 30 23 16 16 29 10 9 8 11 7 2 4 4 1 7 5 3 5 12 6 12 11 11 27 42 67 65 57 65 61
74 74 74 75 74 70 67 61 56 51 47 43 39 36 35 31 28 31 43 40 38 43 28 20 17 12 8 11 13 12 9 13 11 11 12 4 4 6 4 8 6 7 8 8 9 17 21 42 62 62 57 62 55 65
69 70 70 67 64 61 57 53 52 50 46 41 37 33 30 29 29 27 36 29 30 19 11 6 16 14 12 12 14 16 8 18 22 16 7 5 4 13 6 8 8 11 5 8 21 27 38 41 43 50 54 71 66 58
65 62 60 60 58 55 54 53 51 48 43 38 32 28 26 26 29 31 33 30 20 9 10 11 8 8 10 14 17 17 17 25 20 8 5 5 6 4 4 2 8 14 11 8 13 26 26 42 55 62 60 56 59 62
55 55 55 53 50 52 51 47 43 40 35 30 26 26 26 25 25 18 13 22 21 19 10 4 5 14 9 12 24 31 24 20 14 5 8 10 11 12 4 6 11 26 33 31 31 35 33 47 47 44 54 60 65 67
52 51 50 51 49 46 42 39 34 30 27 27 27 25 21 19 14 19 14 15 12 11 9 6 8 2 2 10 16 21 24 20 24 18 13 15 14 19 4 14 5 25 43 29 36 28 26 23 40 59 56 61 64 65
48 47 45 43 41 38 34 30 28 28 26 24 22 22 23 25 30 28 25 17 11 13 9 5 4 4 4 3 5 12 13 18 16 15 10 8 8 13 9 16 25 14 25 16 15 27 33 42 53 57 56 61 67 61
42 41 39 35 34 33 30 28 26 24 22 22 24 26 22 14 11 16 14 7 7 7 7 4 6 6 2 3 4 5 7 1 5 4 8 13 5 10 13 19 23 14 8 20 27 33 38 48 51 58 58 60 64 68
35 33 30 29 30 31 29 25 22 22 23 25 15 10 10 10 19 13 5 4 5 4 3 3 6 3 5 3 1 1 2 4 2 7 14 6 7 41 37 24 13 8 10 16 29 44 47 49 50 59 56 57 60 65
29 29 29 30 29 27 24 21 19 20 20 7 6 7 18 16 5 4 4 4 0 3 7 7 15 3 5 4 4 8 4 4 5 5 7 5 6 6 8 19 9 5 11 16 23 30 32 35 44 57 58 56 62 66
26 27 29 28 26 23 21 19 19 13 8 11 18 18 9 4 6 8 2 5 3 4 9 8 7 10 5 9 6 7 4 2 7 13 5 5 6 14 18 10 8 9 12 22 28 30 34 35 38 45 50 55 59 72
27 28 28 25 22 20 18 18 15 19 24 11 5 5 2 4 12 8 4 5 3 4 8 7 2 5 5 11 5 2 2 7 6 6 5 4 2 18 15 9 10 13 23 28 30 27 32 34 39 41 49 50 54 64
26 25 23 20 18 17 17 15 13 14 6 3 4 3 6 4 6 6 6 5 3 7 10 10 7 8 8 5 4 5 7 2 4 4 8 3 11 13 13 14 18 23 23 26 29 28 31 31 38 41 41 47 49 57
23 21 19 16 14 14 14 9 9 9 1 2 3 5 7 12 10 8 14 6 6 9 7 4 3 7 4 4 5 3 3 7 8 7 5 13 19 19 30 31 29 23 23 27 28 27 31 30 36 44 44 45 44 49
19 17 17 17 14 13 9 8 7 8 4 5 8 2 8 2 8 9 11 13 10 4 8 3 2 3 6 5 6 12 8 11 8 6 15 22 25 35 39 35 35 31 30 31 31 26 29 29 34 41 45 46 48 50
16 12 16 20 16 13 12 8 8 6 6 6 10 20 15 7 13 22 19 8 4 3 2 3 3 15 1 4 6 8 9 7 14 16 15 28 36 36 39 37 39 37 36 34 29 28 30 30 31 38 47 52 52 55
19 16 21 22 18 16 9 7 5 5 9 16 8 20 28 26 25 22 18 20 15 10 7 6 3 6 8 8 7 7 15 17 16 18 25 29 34 37 40 43 41 39 38 35 31 31 33 35 36 41 47 48 52 55
21 15 20 19 17 11 6 8 9 7 20 15 22 34 28 25 34 36 30 23 25 22 8 7 7 7 8 7 6 24 20 20 32 42 42 41 37 38 36 39 42 45 40 33 32 34 33 35 40 43 44 46 52 56
25 11 16 27 21 10 4 7 11 9 9 8 17 23 21 25 33 36 35 33 35 22 13 9 10 15 17 35 40 51 55 61 55 55 56 42 33 28 26 29 33 29 28 30 34 36 38 45 48 47 48 50 51 52
23 14 29 29 22 15 7 7 11 11 10 11 14 10 12 18 32 39 44 34 27 16 8 36 47 53 49 43 43 46 30 14 12 14 15 11 13 16 19 23 26 27 35 42 46 49 46 38 40 42 45 45 47 54
25 26 26 27 13 10 13 15 11 6 8 12 10 12 11 8 14 18 10 17 12 21 28 38 42 37 29 17 5 9 11 17 30 31 35 41 43 46 45 45 46 46 45 36 30 29 30 33 37 41 45 52 57 62
26 25 17 18 13 12 12 13 11 9 3 6 4 4 6 7 9 9 7 12 13 19 20 13 15 14 16 16 1 22 37 41 35 29 26 24 25 23 19 19 22 30 35 34 29 27 31 35 40 44 49 52 55 56
27 10 15 17 24 9 8 9 10 7 7 3 3 6 6 10 7 7 7 11 20 23 23 22 21 15 7 14 31 34 33 29 21 17 21 24 26 28 30 32 30 27 23 21 28 33 37 40 42 44 47 52 55 58
12 16 13 10 16 8 8 3 4 4 8 9 4 7 7 10 4 6 8 11 22 29 27 19 8 11 22 34 30 29 26 22 25 27 25 24 20 20 20 19 20 24 29 34 42 49 53 54 56 57 59 61 65 66
14 27 25 20 10 12 13 9 11 14 8 6 11 9 5 3 1 12 6 11 23 31 34 20 13 21 27 27 25 22 22 24 22 18 13 10 16 20 23 29 37 41 41 48 56 59 63 62 62 63 67 69 70 67
13 14 18 22 16 13 5 9 10 6 10 11 6 1 3 6 11 7 9 16 20 23 18 18 22 25 27 25 22 20 20 16 15 14 15 18 24 26 28 37 41 49 55 62 67 60 60 55 61 68 76 80 73 64
17 25 18 30 20 27 10 7 11 13 9 15 8 7 11 13 10 9 14 19 28 20 21 19 26 29 26 20 19 16 15 17 19 20 24 24 32 36 31 42 51 60 69 63 53 52 54 63 71 73 68 69 69 63
16 22 36 11 12 13 21 15 12 23 20 25 11 8 10 23 35 33 29 25 28 26 22 25 29 27 23 19 17 17 19 20 23 31 42 47 47 45 51 61 64 61 56 57 58 57 57 59 63 63 62 65 65 62
18 39 21 16 13 16 26 32 19 30 37 46 47 35 32 38 37 36 34 40 34 30 24 23 26 26 21 19 17 19 20 22 28 33 35 41 48 56 61 61 62 62 64 64 64 66 63 59 59 60 61 63 61 61
22 44 17 19 9 26 33 33 32 35 31 30 37 39 46 36 39 38 36 33 28 25 26 27 24 23 24 22 20 21 24 24 29 33 39 48 54 57 60 63 64 67 67 64 62 63 64 64 65 69 71 69 67 66
35 31 11 9 6 15 15 14 10 11 11 13 14 23 19 12 8 13 19 22 27 29 24 22 27 25 19 18 20 24 28 32 33 37 45 51 57 62 63 65 69 63 59 61 64 66 70 70 69 68 69 70 70 69
13 12 10 13 9 10 10 12 5 7 3 4 4 3 5 6 12 7 8 9 11 13 18 22 22 25 25 24 26 27 29 28 33 42 51 58 61 61 61 67 63 59 62 68 71 68 67 66 66 65 65 65 65 61
Wind_Direction_500mb
104 107 110 112 114 118 121 123 127 127 127 134 138 133 136 142 137 164 128 136 124 97 76 113 128 125 123 126 127 157 99 19 60 86 123 204 175 213 207 220 174 172 168 226 123 79 292 220 328 232 282 306 298 297
108 109 111 114 117 120 122 126 130 134 133 134 129 118 116 123 120 155 119 116 127 104 119 109 108 111 115 130 129 139 141 139 156 93 97 113 191 182 172 243 209 265 188 219 174 226 261 290 287 291 294 288 291 288
111 113 115 117 119 121 123 124 126 129 132 129 125 116 107 104 102 122 116 118 111 107 99 109 110 131 162 190 186 137 167 161 160 135 155 161 187 149 184 241 217 261 205 235 325 264 268 287 291 291 297 294 296 298
112 113 114 115 116 117 118 119 120 120 121 121 117 111 103 98 100 106 116 113 119 110 107 126 140 136 163 175 193 211 206 178 161 154 116 135 164 189 223 241 210 198 172 253 268 283 287 282 297 299 295 300 299 296
111 113 115 117 118 117 117 117 116 115 114 112 107 102 99 98 101 110 110 101 105 125 142 128 136 126 205 214 207 205 200 178 164 135 102 203 200 159 235 257 245 193 223 189 252 277 282 295 311 308 302 300 302 303
115 117 118 117 116 116 116 115 115 114 111 108 105 103 103 104 112 116 84 70 72 71 91 70 99 86 77 203 226 223 220 198 232 211 194 208 186 176 156 245 232 219 242 262 281 294 297 308 310 313 308 308 306 303
117 118 118 117 118 117 117 116 114 113 112 111 108 104 99 85 87 75 89 93 68 69 68 43 358 154 65 171 180 204 220 210 207 203 209 189 190 187 202 251 180 269 292 295 298 322 306 305 310 327 325 318 318 314
117 116 116 117 118 117 117 118 119 117 114 109 106 103 101 102 97 90 95 89 71 72 75 97 263 10 69 136 176 197 190 202 209 211 164 166 174 199 252 238 262 254 288 294 297 313 307 316 320 327 329 326 325 324
122 122 122 124 124 123 124 123 120 117 113 112 114 110 98 77 65 103 103 71 45 77 112 103 130 217 170 152 216 202 211 82 217 201 203 161 175 220 231 235 247 271 291 296 314 328 330 334 332 331 333 329 330 326
125 124 126 131 130 128 127 127 123 117 118 120 107 63 63 80 107 107 89 57 31 65 118 144 187 246 184 174 54 126 118 216 212 230 142 199 247 244 245 244 233 295 302 320 332 337 338 336 334 336 334 328 330 332
132 132 132 130 130 131 130 125 121 125 128 88 76 81 121 118 100 66 86 79 98 15 203 216 204 218 211 125 199 216 212 233 220 208 186 216 247 214 155 190 220 286 308 313 325 327 328 330 336 340 339 342 342 340
141 140 140 140 139 137 135 131 131 141 118 104 105 109 111 81 69 74 312 329 209 227 191 182 212 215 203 200 190 204 212 152 244 150 217 236 250 168 175 187 213 280 307 321 325 327 331 333 338 339 341 342 342 348
145 145 146 146 147 149 147 144 122 128 127 108 97 110 110 25 40 112 220 291 338 252 178 195 245 205 195 214 267 148 186 228 136 222 219 214 309 178 188 217 246 289 308 312 318 323 332 334 344 341 339 343 342 346
143 145 148 152 157 163 165 162 158 154 155 128 142 359 140 276 244 194 175 160 296 264 270 288 230 179 203 184 185 184 231 288 293 224 230 202 232 220 223 247 274 286 300 312 317 322 333 335 338 342 340 341 341 345
158 161 164 166 169 173 176 175 182 187 164 100 127 242 218 228 241 226 239 224 237 263 284 295 246 194 208 244 206 196 257 238 204 228 222 210 222 236 238 245 256 269 291 307 311 313 325 323 328 339 343 343 344 346
171 176 186 185 182 186 194 185 183 185 225 223 221 239 212 131 275 240 225 230 295 260 302 220 157 46 262 202 222 214 165 217 226 210 230 222 230 241 241 250 261 267 279 298 301 301 316 320 323 333 337 342 343 346
211 210 201 192 189 186 181 178 165 215 235 230 245 229 230 257 242 250 267 237 193 199 231 137 133 218 88 241 231 189 208 207 192 224 261 255 254 259 248 257 260 264 271 290 286 293 308 318 319 326 332 335 336 341
184 176 173 185 195 182 178 215 229 248 250 241 229 238 223 236 242 246 239 247 243 212 188 230 261 220 216 216 244 236 211 206 238 264 275 278 268 257 252 257 261 263 270 278 277 288 297 310 317 323 325 323 325 330
166 177 188 194 201 193 200 219 210 259 239 249 249 253 248 253 258 266 267 259 253 232 210 214 238 221 229 251 259 291 249 249 288 295 289 287 268 260 257 258 265 269 273 271 277 288 293 302 309 314 316 315 317 322
194 240 241 199 189 196 228 231 206 247 258 254 249 255 250 253 269 269 268 258 245 222 211 221 217 230 240 266 282 295 299 304 304 292 280 271 260 256 259 271 277 273 277 291 295 291 294 301 302 301 307 310 311 314
205 201 175 180 198 219 262 247 228 237 256 249 276 269 258 267 266 264 262 256 213 213 223 239 254 264 275 287 292 294 298 302 77 64 38 356 312 313 314 317 319 315 313 307 302 296 291 287 295 300 300 298 300 304
210 197 188 198 219 218 252 236 234 274 252 256 266 248 254 261 266 262 219 186 219 232 238 255 266 273 270 277 195 98 25 0 355 343 331 324 320 319 317 311 303 293 286 277 272 282 293 297 296 294 295 299 302 305
207 204 203 194 198 220 248 207 219 217 233 262 229 252 261 245 244 211 239 221 226 230 238 233 241 215 169 158 90 350 344 338 328 320 311 301 298 295 296 297 317 318 317 315 308 302 303 300 302 305 307 308 309 311
206 214 203 203 202 233 203 209 216 224 236 246 205 261 251 229 235 224 234 219 233 230 221 208 205 207 230 328 343 334 328 324 321 307 307 311 312 311 315 318 318 314 312 315 319 319 316 312 311 313 316 318 317 316
200 215 203 218 193 187 177 234 243 180 229 215 199 273 260 215 193 249 226 237 231 221 197 192 217 325 331 330 323 312 308 307 313 318 316 319 325 327 326 319 321 324 325 320 314 314 311 310 308 309 313 320 323 319
208 208 194 189 191 176 189 185 202 207 184 213 226 239 227 117 189 249 232 213 222 222 205 211 294 314 308 297 288 291 303 307 311 317 326 317 330 325 317 318 316 312 320 322 321 314 309 309 306 306 308 313 317 315
209 202 199 201 184 176 186 220 189 153 183 206 231 239 115 231 239 249 205 215 212 202 207 297 303 287 279 280 283 290 293 290 286 295 301 307 309 298 305 315 315 312 312 313 313 309 303 296 294 299 304 306 308 309
209 188 177 183 199 196 175 178 174 194 213 215 146 171 201 204 236 214 234 235 215 235 294 294 260 263 273 271 272 273 262 264 273 276 284 295 311 314 316 313 314 314 314 313 311 308 297 292 294 298 301 303 305 307
196 186 183 172 178 188 202 190 205 210 209 191 175 219 239 256 278 283 281 228 254 295 299 268 258 262 255 258 262 262 265 280 300 309 317 321 326 335 330 324 321 320 319 315 311 308 306 305 304 303 301 299 300 301
196 189 184 176 184 210 208 207 218 238 239 245 253 252 255 265 278 280 269 277 290 288 286 269 255 246 248 256 257 263 273 289 305 313 317 319 322 323 321 319 318 317 316 313 311 310 312 314 312 309 308 307 305 305
183 187 196 186 217 232 237 241 249 254 254 242 245 250 265 278 281 282 279 274 268 261 253 248 239 240 247 249 259 279 292 302 307 314 317 317 317 317 316 316 316 315 314 314 314 313 312 310 308 308 309 309 309 308
188 182 162 183 236 208 201 196 201 216 229 238 243 252 263 269 263 278 274 259 252 255 258 238 241 246 253 266 274 286 295 300 307 315 316 318 317 316 315 314 318 320 317 313 311 311 309 309 307 303 302 301 301 300
149 140 154 130 139 158 162 153 65 338 298 300 277 286 246 232 225 243 247 258 249 253 246 249 248 248 262 273 283 291 293 297 309 317 320 318 316 317 315 319 321 319 317 314 311 312 311 309 307 306 304 303 303 304
Wind_Speed_850mb
103 97 96 92 88 85 85 81 82 71 62 55 47 38 30 27 26 26 35 36 34 21 24 26 26 27 22 17 8 14 9 4 6 6 6 5 5 9 5 6 8 8 5 7 3 3 13 12 9 7 11 58 53 60
84 83 82 80 79 76 74 70 66 60 51 45 39 36 34 33 30 37 41 37 52 24 28 33 30 23 16 16 29 10 9 8 11 7 2 4 4 1 7 5 3 5 12 6 12 11 11 27 42 67 65 57 65 61
74 74 74 75 74 70 67 61 56 51 47 43 39 36 35 31 28 31 43 40 38 43 28 20 17 12 8 11 13 12 9 13 11 11 12 4 4 6 4 8 6 7 8 8 9 17 21 42 62 62 57 62 55 65
69 70 70 67 64 61 57 53 52 50 46 41 37 33 30 29 29 27 36 29 30 19 11 6 16 14 12 12 14 16 8 18 22 16 7 5 4 13 6 8 8 11 5 8 21 27 38 41 43 50 54 71 66 58
65 62 60 60 58 55 54 53 51 48 43 38 32 28 26 26 29 31 33 30 20 9 10 11 8 8 10 14 17 17 17 25 20 8 5 5 6 4 4 2 8 14 11 8 13 26 26 42 55 62 60 56 59 62
55 55 55 53 50 52 51 47 43 40 35 30 26 26 26 25 25 18 13 22 21 19 10 4 5 14 9 12 24 31 24 20 14 5 8 10 11 12 4 6 11 26 33 31 31 35 33 47 47 44 54 60 65 67
52 51 50 51 49 46 42 39 34 30 27 27 27 25 21 19 14 19 14 15 12 11 9 6 8 2 2 10 16 21 24 20 24 18 13 15 14 19 4 14 5 25 43 29 36 28 26 23 40 59 56 61 64 65
48 47 45 43 41 38 34 30 28 28 26 24 22 22 23 25 30 28 25 17 11 13 9 5 4 4 4 3 5 12 13 18 16 15 10 8 8 13 9 16 25 14 25 16 15 27 33 42 53 57 56 61 67 61
42 41 39 35 34 33 30 28 26 24 22 22 24 26 22 14 11 16 14 7 7 7 7 4 6 6 2 3 4 5 7 1 5 4 8 13 5 10 13 19 23 14 8 20 27 33 38 48 51 58 58 60 64 68
35 33 30 29 30 31 29 25 22 22 23 25 15 10 10 10 19 13 5 4 5 4 3 3 6 3 5 3 1 1 2 4 2 7 14 6 7 41 37 24 13 8 10 16 29 44 47 49 50 59 56 57 60 65
29 29 29 30 29 27 24 21 19 20 20 7 6 7 18 16 5 4 4 4 0 3 7 7 15 3 5 4 4 8 4 4 5 5 7 5 6 6 8 19 9 5 11 16 23 30 32 35 44 57 58 56 62 66
26 27 29 28 26 23 21 19 19 13 8 11 18 18 9 4 6 8 2 5 3 4 9 8 7 10 5 9 6 7 4 2 7 13 5 5 6 14 18 10 8 9 12 22 28 30 34 35 38 45 50 55 59 72
27 28 28 25 22 20 18 18 15 19 24 11 5 5 2 4 12 8 4 5 3 4 8 7 2 5 5 11 5 2 2 7 6 6 5 4 2 18 15 9 10 13 23 28 30 27 32 34 39 41 49 50 54 64
26 25 23 20 18 17 17 15 13 14 6 3 4 3 6 4 6 6 6 5 3 7 10 10 7 8 8 5 4 5 7 2 4 4 8 3 11 13 13 14 18 23 23 26 29 28 31 31 38 41 41 47 49 57
23 21 19 16 14 14 14 9 9 9 1 2 3 5 7 12 10 8 14 6 6 9 7 4 3 7 4 4 5 3 3 7 8 7 5 13 19 19 30 31 29 23 23 27 28 27 31 30 36 44 44 45 44 49
19 17 17 17 14 13 9 8 7 8 4 5 8 2 8 2 8 9 11 13 10 4 8 3 2 3 6 5 6 12 8 11 8 6 15 22 25 35 39 35 35 31 30 31 31 26 29 29 34 41 45 46 48 50
16 12 16 20 16 13 12 8 8 6 6 6 10 20 15 7 13 22 19 8 4 3 2 3 3 15 1 4 6 8 9 7 14 16 15 28 36 36 39 37 39 37 36 34 29 28 30 30 31 38 47 52 52 55
19 16 21 22 18 16 9 7 5 5 9 16 8 20 28 26 25 22 18 20 15 10 7 6 3 6 8 8 7 7 15 17 16 18 25 29 34 37 40 43 41 39 38 35 31 31 33 35 36 41 47 48 52 55
21 15 20 19 17 11 6 8 9 7 20 15 22 34 28 25 34 36 30 23 25 22 8 7 7 7 8 7 6 24 20 20 32 42 42 41 37 38 36 39 42 45 40 33 32 34 33 35 40 43 44 46 52 56
25 11 16 27 21 10 4 7 11 9 9 8 17 23 21 25 33 36 35 33 35 22 13 9 10 15 17 35 40 51 55 61 55 55 56 42 33 28 26 29 33 29 28 30 34 36 38 45 48 47 48 50 51 52
23 14 29 29 22 15 7 7 11 11 10 11 14 10 12 18 32 39 44 34 27 16 8 36 47 53 49 43 43 46 30 14 12 14 15 11 13 16 19 23 26 27 35 42 46 49 46 38 40 42 45 45 47 54
25 26 26 27 13 10 13 15 11 6 8 12 10 12 11 8 14 18 10 17 12 21 28 38 42 37 29 17 5 9 11 17 30 31 35 41 43 46 45 45 46 46 45 36 30 29 30 33 37 41 45 52 57 62
26 25 17 18 13 12 12 13 11 9 3 6 4 4 6 7 9 9 7 12 13 19 20 13 15 14 16 16 1 22 37 41 35 29 26 24 25 23 19 19 22 30 35 34 29 27 31 35 40 44 49 52 55 56
27 10 15 17 24 9 8 9 10 7 7 3 3 6 6 10 7 7 7 11 20 23 23 22 21 15 7 14 31 34 33 29 21 17 21 24 26 28 30 32 30 27 23 21 28 33 37 40 42 44 47 52 55 58
12 16 13 10 16 8 8 3 4 4 8 9 4 7 7 10 4 6 8 11 22 29 27 19 8 11 22 34 30 29 26 22 25 27 25 24 20 20 20 19 20 24 29 34 42 49 53 54 56 57 59 61 65 66
14 27 25 20 10 12 13 9 11 14 8 6 11 9 5 3 1 12 6 11 23 31 34 20 13 21 27 27 25 22 22 24 22 18 13 10 16 20 23 29 37 41 41 48 56 59 63 62 62 63 67 69 70 67
13 14 18 22 16 13 5 9 10 6 10 11 6 1 3 6 11 7 9 16 20 23 18 18 22 25 27 25 22 20 20 16 15 14 15 18 24 26 28 37 41 49 55 62 67 60 60 55 61 68 76 80 73 64
17 25 18 30 20 27 10 7 11 13 9 15 8 7 11 13 10 9 14 19 28 20 21 19 26 29 26 20 19 16 15 17 19 20 24 24 32 36 31 42 51 60 69 63 53 52 54 63 71 73 68 69 69 63
16 22 36 11 12 13 21 15 12 23 20 25 11 8 10 23 35 33 29 25 28 26 22 25 29 27 23 19 17 17 19 20 23 31 42 47 47 45 51 61 64 61 56 57 58 57 57 59 63 63 62 65 65 62
18 39 21 16 13 16 26 32 19 30 37 46 47 35 32 38 37 36 34 40 34 30 24 23 26 26 21 19 17 19 20 22 28 33 35 41 48 56 61 61 62 62 64 64 64 66 63 59 59 60 61 63 61 61
22 44 17 19 9 26 33 33 32 35 31 30 37 39 46 36 39 38 36 33 28 25 26 27 24 23 24 22 20 21 24 24 29 33 39 48 54 57 60 63 64 67 67 64 62 63 64 64 65 69 71 69 67 66
35 31 11 9 6 15 15 14 10 11 11 13 14 23 19 12 8 13 19 22 27 29 24 22 27 25 19 18 20 24 28 32 33 37 45 51 57 62 63 65 69 63 59 61 64 66 70 70 69 68 69 70 70 69
13 12 10 13 9 10 10 12 5 7 3 4 4 3 5 6 12 7 8 9 11 13 18 22 22 25 25 24 26 27 29 28 33 42 51 58 61 61 61 67 63 59 62 68 71 68 67 66 66 65 65 65 65 61
Wind_Direction_850mb
104 107 110 112 114 118 121 123 127 127 127 134 138 133 136 142 137 164 128 136 124 97 76 113 128 125 123 126 127 157 99 19 60 86 123 204 175 213 207 220 174 172 168 226 123 79 292 220 328 232 282 306 298 297
108 109 111 114 117 120 122 126 130 134 133 134 129 118 116 123 120 155 119 116 127 104 119 109 108 111 115 130 129 139 141 139 156 93 97 113 191 182 172 243 209 265 188 219 174 226 261 290 287 291 294 288 291 288
111 113 115 117 119 121 123 124 126 129 132 129 125 116 107 104 102 122 116 118 111 107 99 109 110 131 162 190 186 137 167 161 160 135 155 161 187 149 184 241 217 261 205 235 325 264 268 287 291 291 297 294 296 298
112 113 114 115 116 117 118 119 120 120 121 121 117 111 103 98 100 106 116 113 119 110 107 126 140 136 163 175 193 211 206 178 161 154 116 135 164 189 223 241 210 198 172 253 268 283 287 282 297 299 295 300 299 296
111 113 115 117 118 117 117 117 116 115 114 112 107 102 99 98 101 110 110 101 105 125 142 128 136 126 205 214 207 205 200 178 164 135 102 203 200 159 235 257 245 193 223 189 252 277 282 295 311 308 302 300 302 303
115 117 118 117 116 116 116 115 115 114 111 108 105 103 103 104 112 116 84 70 72 71 91 70 99 86 77 203 226 223 220 198 232 211 194 208 186 176 156 245 232 219 242 262 281 294 297 308 310 313 308 308 306 303
117 118 118 117 118 117 117 116 114 113 112 111 108 104 99 85 87 75 89 93 68 69 68 43 358 154 65 171 180 204 220 210 207 203 209 189 190 187 202 251 180 269 292 295 298 322 306 305 310 327 325 318 318 314
117 116 116 117 118 117 117 118 119 117 114 109 106 103 101 102 97 90 95 89 71 72 75 97 263 10 69 136 176 197 190 202 209 211 164 166 174 199 252 238 262 254 288 294 297 313 307 316 320 327 329 326 325 324
122 122 122 124 124 123 124 123 120 117 113 112 114 110 98 77 65 103 103 71 45 77 112 103 130 217 170 152 216 202 211 82 217 201 203 161 175 220 231 235 247 271 291 296 314 328 330 334 332 331 333 329 330 326
125 124 126 131 130 128 127 127 123 117 118 120 107 63 63 80 107 107 89 57 31 65 118 144 187 246 184 174 54 126 118 216 212 230 142 199 247 244 245 244 233 295 302 320 332 337 338 336 334 336 334 328 330 332
132 132 132 130 130 131 130 125 121 125 128 88 76 81 121 118 100 66 86 79 98 15 203 216 204 218 211 125 199 216 212 233 220 208 186 216 247 214 155 190 220 286 308 313 325 327 328 330 336 340 339 342 342 340
141 140 140 140 139 137 135 131 131 141 118 104 105 109 111 81 69 74 312 329 209 227 191 182 212 215 203 200 190 204 212 152 244 150 217 236 250 168 175 187 213 280 307 321 325 327 331 333 338 339 341 342 342 348
145 145 146 146 147 149 147 144 122 128 127 108 97 110 110 25 40 112 220 291 338 252 178 195 245 205 195 214 267 148 186 228 136 222 219 214 309 178 188 217 246 289 308 312 318 323 332 334 344 341 339 343 342 346
143 145 148 152 157 163 165 162 158 154 155 128 142 359 140 276 244 194 175 160 296 264 270 288 230 179 203 184 185 184 231 288 293 224 230 202 232 220 223 247 274 286 300 312 317 322 333 335 338 342 340 341 341 345
158 161 164 166 169 173 176 175 182 187 164 100 127 242 218 228 241 226 239 224 237 263 284 295 246 194 208 244 206 196 257 238 204 228 222 210 222 236 238 245 256 269 291 307 311 313 325 323 328 339 343 343 344 346
171 176 186 185 182 186 194 185 183 185 225 223 221 239 212 131 275 240 225 230 295 260 302 220 157 46 262 202 222 214 165 217 226 210 230 222 230 241 241 250 261 267 279 298 301 301 316 320 323 333 337 342 343 346
211 210 201 192 189 186 181 178 165 215 235 230 245 229 230 257 242 250 267 237 193 199 231 137 133 218 88 241 231 189 208 207 192 224 261 255 254 259 248 257 260 264 271 290 286 293 308 318 319 326 332 335 336 341
184 176 173 185 195 182 178 215 229 248 250 241 229 238 223 236 242 246 239 247 243 212 188 230 261 220 216 216 244 236 211 206 238 264 275 278 268 257 252 257 261 263 270 278 277 288 297 310 317 323 325 323 325 330
166 177 188 194 201 193 200 219 210 259 239 249 249 253 248 253 258 266 267 259 253 232 210 214 238 221 229 251 259 291 249 249 288 295 289 287 268 260 257 258 265 269 273 271 277 288 293 302 309 314 316 315 317 322
194 240 241 199 189 196 228 231 206 247 258 254 249 255 250 253 269 269 268 258 245 222 211 221 217 230 240 266 282 295 299 304 304 292 280 271 260 256 259 271 277 273 277 291 295 291 294 301 302 301 307 310 311 314
205 201 175 180 198 219 262 247 228 237 256 249 276 269 258 267 266 264 262 256 213 213 223 239 254 264 275 287 292 294 298 302 77 64 38 356 312 313 314 317 319 315 313 307 302 296 291 287 295 300 300 298 300 304
210 197 188 198 219 218 252 236 234 274 252 256 266 248 254 261 266 262 219 186 219 232 238 255 266 273 270 277 195 98 25 0 355 343 331 324 320 319 317 311 303 293 286 277 272 282 293 297 296 294 295 299 302 305
207 204 203 194 198 220 248 207 219 217 233 262 229 252 261 245 244 211 239 221 226 230 238 233 241 215 169 158 90 350 344 338 328 320 311 301 298 295 296 297 317 318 317 315 308 302 303 300 302 305 307 308 309 311
206 214 203 203 202 233 203 209 216 224 236 246 205 261 251 229 235 224 234 219 233 230 221 208 205 207 230 328 343 334 328 324 321 307 307 311 312 311 315 318 318 314 312 315 319 319 316 312 311 313 316 318 317 316
200 215 203 218 193 187 177 234 243 180 229 215 199 273 260 215 193 249 226 237 231 221 197 192 217 325 331 330 323 312 308 307 313 318 316 319 325 327 326 319 321 324 325 320 314 314 311 310 308 309 313 320 323 319
208 208 194 189 191 176 189 185 202 207 184 213 226 239 227 117 189 249 232 213 222 222 205 211 294 314 308 297 288 291 303 307 311 317 326 317 330 325 317 318 316 312 320 322 321 314 309 309 306 306 308 313 317 315
209 202 199 201 184 176 186 220 189 153 183 206 231 239 115 231 239 249 205 215 212 202 207 297 303 287 279 280 283 290 293 290 286 295 301 307 309 298 305 315 315 312 312 313 313 309 303 296 294 299 304 306 308 309
209 188 177 183 199 196 175 178 174 194 213 215 146 171 201 204 236 214 234 235 215 235 294 294 260 263 273 271 272 273 262 264 273 276 284 295 311 314 316 313 314 314 314 313 311 308 297 292 294 298 301 303 305 307
196 186 183 172 178 188 202 190 205 210 209 191 175 219 239 256 278 283 281 228 254 295 299 268 258 262 255 258 262 262 265 280 300 309 317 321 326 335 330 324 321 320 319 315 311 308 306 305 304 303 301 299 300 301
196 189 184 176 184 210 208 207 218 238 239 245 253 252 255 265 278 280 269 277 290 288 286 269 255 246 248 256 257 263 273 289 305 313 317 319 322 323 321 319 318 317 316 313 311 310 312 314 312 309 308 307 305 305
183 187 196 186 217 232 237 241 249 254 254 242 245 250 265 278 281 282 279 274 268 261 253 248 239 240 247 249 259 279 292 302 307 314 317 317 317 317 316 316 316 315 314 314 314 313 312 310 308 308 309 309 309 308
188 182 162 183 236 208 201 196 201 216 229 238 243 252 263 269 263 278 274 259 252 255 258 238 241 246 253 266 274 286 295 300 307 315 316 318 317 316 315 314 318 320 317 313 311 311 309 309 307 303 302 301 301 300
149 140 154 130 139 158 162 153 65 338 298 300 277 286 246 232 225 243 247 258 249 253 246 249 248 248 262 273 283 291 293 297 309 317 320 318 316 317 315 319 321 319 317 314 311 312 311 309 307 306 304 303 303 304